Regional Weather Roundup
Issued by NWS Wakefield, VA

Home | Current Version | Previous Version | Text Only | Print | Product List | Glossary Off
Versions: 1 2 3 4 5 6 7 8 9 10 11 12 13 14 15 16 17 18 19 20 21 22 23 24 25 26 27 28 29 30 31 32 33 34 35 36 37 38 39 40 41 42 43 44 45 46 47 48 49 50

000
ASUS41 KAKQ 261710
RWRAKQ

REGIONAL WEATHER ROUNDUP
NATIONAL WEATHER SERVICE WAKEFIELD VA
1200 PM EST FRI DEC 26 2014

Note: "fair" indicates few or no clouds below 12,000 feet with no
significant weather and/or obstructions to visibility. * = Denotes
station may not report precipitation (e.g., rain,snow,etc.),
thunder or fog.

VAZ042-051-052>054-056-261800-
NORTHERN VIRGINIA

CITY           SKY/WX    TMP DP  RH WIND       PRES   REMARKS
WASH NATIONAL  MOSUNNY   49  34  56 S10       30.32F
DULLES         MOSUNNY   48  31  51 SW7       30.31F
FORT BELVOIR   SUNNY     48  31  50 SE5       30.32F
QUANTICO       SUNNY     43  36  76 S6        30.33F
FREDERICKSBRG* SUNNY     50  34  54 CALM      30.31F
STAFFORD*      SUNNY     49  30  49 CALM      30.36F
WARRENTON      SUNNY     51  39  63 SW7       30.31F
CULPEPER*      NOT AVBL
MANASSAS*      SUNNY     46  34  61 CALM      30.33F
LEESBURG*      SUNNY     50  34  53 SW3       30.31F
WINCHESTER     SUNNY     46  27  46 CALM      30.29F
FRONT ROYAL*   SUNNY     46  32  57 CALM      30.28F
LURAY*         SUNNY     50  34  53 CALM      30.27F
$$

VAZ048-049-060>072-079>083-261800-
CENTRAL AND SOUTH CENTRAL VIRGINIA

CITY           SKY/WX    TMP DP  RH WIND       PRES   REMARKS
RICHMOND       PTSUNNY   52  33  48 SE5       30.32F
CHESTERFIELD*  SUNNY     52  28  40 S6        30.33F
PETERSBURG*    SUNNY     53  33  48 SW5       30.32F
HANOVER        SUNNY     50  33  52 S3        30.33F
TAPPAHANNOCK*  SUNNY     51  30  43 CALM      30.33F
QUINTON*       SUNNY     51  35  53 CALM      30.32F
CHARLOTTSVILLE SUNNY     46  30  53 SE6       30.30F
GORDONSVILLE*  SUNNY     46  31  56 S7        30.30F
ORANGE*        SUNNY     48  32  53 S6        30.32F
LOUISA*        SUNNY     48  34  57 CALM      30.30F
BUMPASS*       SUNNY     49  32  52 S5        30.31F
FARMVILLE*     SUNNY     54  37  53 S3        30.29F
CREWE*         SUNNY     49  32  50 SW3       30.31F
FORT PICKETT*  SUNNY     50  35  57 SW6       30.31F
CHASE CITY*    SUNNY     52  36  55 SW3       30.31F
CLARKSVILLE*   SUNNY     50  34  53 SW3       30.32F
SOUTH HILL*    SUNNY     50  35  56 SW3       30.38F
LAWRENCEVILLE* SUNNY     49  37  61 SW6       30.32F
EMPORIA*       SUNNY     50  34  53 CALM      30.34F
$$

VAZ088>098-261800-
SOUTHEAST VIRGINIA

CITY           SKY/WX    TMP DP  RH WIND       PRES   REMARKS
NORFOLK        SUNNY     50  40  68 NE7       30.31F
VIRGINIA BEACH MOSUNNY   54  40  59 VRB6      30.30F
NORFOLK NAVAL  MOSUNNY   53  40  61 N8        30.33F
WEST POINT*    SUNNY     53  34  48 CALM      30.34F
SALUDA*        FAIR      48  32  52 E6        30.32F
NEWPORT NEWS   SUNNY     55  36  48 S5        30.32F
LANGLEY AFB    SUNNY     50  38  63 NE7       30.32F
FORT EUSTIS    SUNNY     50  50  99 SW5       30.31F
WILLIAMSBURG*  SUNNY     55  39  54 SE3       30.34S
HR EXEC AP*    SUNNY     54  39  58 S3        30.34F
FRANKLIN*      SUNNY     52  36  54 CALM      30.33F
WAKEFIELD      SUNNY     52  36  54 SW6       30.32F
$$

VAZ020-022-025-037-045-261800-
WEST CENTRAL AND SOUTHWEST VIRGINIA

CITY           SKY/WX    TMP DP  RH WIND       PRES   REMARKS
STAUNTON*      SUNNY     45  31  60 CALM      30.29F
WAYNESBORO*    SUNNY     50  28  42 CALM      30.27F
HOT SPRINGS VA MOSUNNY   42  16  35 W12       30.23F
LYNCHBURG      MOSUNNY   48  32  53 CALM      30.30F
DANVILLE       SUNNY     49  35  58 SW3       30.32F
SOUTH BOSTON*  SUNNY     50  32  49 W5        30.32F
MARTINSVILLE   SUNNY     54  31  42 CALM      30.32F
ROANOKE        MOSUNNY   49  30  48 NE3       30.32F
BLACKSBURG     SUNNY     44  30  56 W3        30.32F
DUBLIN*        MOSUNNY   47  34  60 CALM      30.31F
MARION*        SUNNY     53  16  23 SW6       30.31F
HILLSVILLE*    SUNNY     47  26  42 CALM      30.29F
RICHLANDS*     SUNNY     46  30  53 CALM      30.29F
WISE*          SUNNY     50  21  32 NE3       30.30F
ABINGDON*      SUNNY     51  30  43 CALM      30.30F
$$

MDZ021>025-VAZ099-100-261800-
SOUTHERN MARYLAND AND THE DELMARVA PENINSULA

CITY           SKY/WX    TMP DP  RH WIND       PRES   REMARKS
PATUXENT RIVER PTSUNNY   48  31  51 CALM      30.32F
BAY BRIDGE APT   N/A     46  30  53 CALM      30.31F
LEONARDTOWN    SUNNY     48  32  53 CALM      30.32F
DOVER          SUNNY     48  31  51 W9        30.27F
GEORGETOWN     SUNNY     50  32  50 W8        30.30F
EASTON         SUNNY     50  34  53 NW7       30.34
CAMBRIDGE      SUNNY     50  32  50 W5        30.31F
SALISBURY      SUNNY     52  33  48 VRB6      30.31F
OCEAN CITY     SUNNY     50  33  52 NW9       30.30F
WALLOPS ISLAND SUNNY     50  33  52 CALM      30.31F
ACCOMACK*      SUNNY     50  32  50 CALM      30.31F
$$

NCZ012>017-030>032-261800-
NORTH CENTRAL AND EASTERN NORTH CAROLINA

CITY           SKY/WX    TMP DP  RH WIND       PRES   REMARKS
ROANOKE RAPIDS SUNNY     50  34  53 SW6       30.32F
RALEIGH        MOSUNNY   54  36  50 SW7       30.34F
ELIZABETH CITY SUNNY     56  39  53 SW3       30.32F
AHOSKIE*       SUNNY     51  34  52 S3        30.33F
EDENTON*       SUNNY     52  38  58 W5        30.33F
CURRITUCK*     SUNNY     54  37  53 SW5       30.32F
KILL DEVIL HLS SUNNY     51  43  72 NW3       30.30F
MANTEO         SUNNY     54  43  66 CALM      30.31F
CAPE HATTERAS  SUNNY     54  44  69 NW6       30.32F
TARBORO*       SUNNY     54  35  49 W5        30.35F
GOLDSBORO      SUNNY     54  41  60 S1        30.32F
WASHINGTON     SUNNY     53  35  50 SW3       30.34F
GREENVILLE     SUNNY     54  34  47 CALM      30.34F
NEW BERN       SUNNY     59  35  40 CALM      30.35F
WILMINGTON     SUNNY     59  40  49 CALM      30.33F
$$

VAZ048-261800-
ELSEWHERE

CITY           SKY/WX    TMP DP  RH WIND       PRES   REMARKS
HARRISBURG PA  SUNNY     45  30  55 W6        30.27F
BALTIMORE      MOSUNNY   50  31  48 W8        30.29F
ANNAPOLIS      SUNNY     50  30  46 VRB7      30.30F
ANDREWS AFB    SUNNY     50  32  51 W7        30.30F
PHILADELPHIA   MOSUNNY   47  29  49 W8        30.28F
HENDERSON NC   SUNNY     53  32  45 SW6       30.32F
GREENSBORO     MOSUNNY   51  33  50 S9        30.31F
ROCKY MOUNT    SUNNY     54  35  48 SW5       30.33F
$$

VAZ100-261800-
MARINE

STATION/POSITION TIME  TEMP    WIND        PRES    WAVE   SWELL
                       AIR SEA DIR/SP/G            HT/PER HT/PER
                 (UTC) (F)     (DEG/KT/KT) (MB)    (FT/S) (FT/S)
CAPE MAY NJ      1700   43 46  270/  8/  9 1025.8F
LEWES DE         1700   45 45  350/  4/  6 1026.1F
15NM E FENWICK I 1700   43 45              1025.9F   2/ 8
OCEAN-CITY-INLET 1700   46 45   30/  6/  8 1026.0F
WACHAPREAGUE VA  1700   48 47  140/  3/  5 1026.8F
THOMAS POINT MD  1700   42 42  150/  5/  5 1027.2F
GOOSES REEF MD   1700   44     VRB  2/  4  1025.7F   0
COVE POINT MD    1700   43      60/  3/  3 1026.7F
SOLOMONS ISLAND  1700      43                N/A
BISHOPS HEAD MD  1700   44 44  270/  5/  6 1026.4F
PINEY POINT MD   1700          330/  5/  6   N/A
POTOMAC MD       1700   43 44  310/  4/  4 1026.2F   0
CAMBRIDGE MD     1700   44 42  330/  4/  5 1026.5F
LEWISETTA VA     1700   45 44   CALM  /  3 1026.7F
RAPPAHANNOCK LGT 1700          340/  5/  5 1027.4F
STINGRAY PT      1700   45 44   20/  2/  2 1027.4F   0
YORK RVR RNG VA  1700   48      CALM  /  1 1026.4S
YORKTOWN VA      1700   47 46   60/  5/  7 1026.6F
JAMESTOWN VA     1700   49 46  150/  2/  4   N/A     0
DOMINION TERM VA 1700   47      80/  4/  5 1026.7F
KIPTOPEKE VA     1700      50  290/  2/  3   N/A
CHES BAY BRIDGE  1700   46 45   30/  5/  5 1026.1F
CAPE HENRY VA    1700   47      80/  4/  5 1025.3F
CHESAPEAKE LGHT  1600   49     100/  5/  5 1028.0F
WILLOUBY STN VA  1700   45      30/  5/  6 1027.1F
S CRANEY ISL VA  1700          360/  3/  3 1026.4F
CAPE HENRY BUOY  1600      49                N/A     2/ 8
1ST LANDING BUOY 1700   47 46   40/  4/  6 1026.2F   1/ 4
CAPE CHARLES BUO 1700      48                N/A     2/ 8   2/ 8
64NM E OF VA BCH 1700   51 52   20/  4/  4 1026.0F   3/ 7   3/ 7
DUCK PIER NC     1700   51 51  260/  3/  4 1025.8F
44100 DUCK FRF   1700      50                N/A     2/ 7
44056 DUCK FRF   1700      50                N/A     2/ 8   2/13
OREGON INLET NC  1700   52 53  240/  5/  5 1026.9F
HATTERAS NC      1700   51 54  320/  5/  6 1027.3F
DIAMOND SHLS NC  1600   58                 1027.4R   3/ 8
CAPE LOOKOUT NC  1700   55     320/  7/  8 1026.9F
$$


USA.gov is the U.S. government's official web portal to all federal, state and local government web resources and services.